SV2BBO-2 Thessaloniki GR current weather conditions

sailwx.info

Wind from 355 at 5 knots gusting 7

Air temperature 28.9° C
Dewpoint 0.5° C

Last reported at 2016-May-27 11:47 UTC.
Time now 2016-May-27 12:17 UTC

Location: N 40°38' E 022°57'.
View on Google Maps.

See reports from other nearby stations

  
Tides and Currents Weather Stations Pressure Air Temp Water Temp Dewpoint Dewpoint Depression Visibility Wind Speed Wind Dir Waves Ship Positions
date/time (UTC)wind fromknots sea level pressurealtimeterstation pressurevisibilityair tempwater tempwave heightnotes
2016-May-27 11:47 355 5 gusting 7 28.9
2016-May-27 11:37 271 5 gusting 8 28.3
2016-May-27 11:27 315 5 gusting 8 28.3
2016-May-27 11:17 004 6 gusting 7 28.3
2016-May-27 11:07 022 9 gusting 12 28.3
2016-May-27 10:57 298 4 gusting 7 28.3
2016-May-27 10:47 291 6 gusting 12 27.8
2016-May-27 10:37 300 6 gusting 12 28.3
2016-May-27 10:27 338 6 gusting 8 28.3
2016-May-27 10:17 313 6 gusting 9 28.3
2016-May-27 10:07 296 6 gusting 7 28.3
2016-May-27 09:57 294 6 gusting 12 28.3
2016-May-27 09:47 355 6 gusting 8 27.8
2016-May-27 09:37 320 7 gusting 11 27.8
2016-May-27 09:27 333 5 gusting 10 27.8
2016-May-27 09:17 332 6 gusting 11 27.8
2016-May-27 09:07 297 8 gusting 7 27.8
2016-May-27 08:57 328 7 gusting 7 27.8
2016-May-27 08:47 339 5 gusting 6 27.8
2016-May-27 08:37 320 6 gusting 13 27.8
2016-May-27 08:27 309 7 gusting 7 27.8
2016-May-27 08:17 332 6 gusting 10 27.8
2016-May-27 08:07 349 6 gusting 13 27.8
2016-May-27 07:57 325 6 gusting 10 27.8
2016-May-27 07:47 321 7 gusting 11 27.2
2016-May-27 07:37 337 5 gusting 9 27.2
2016-May-27 07:27 316 7 gusting 7 27.2
2016-May-27 07:17 345 9 gusting 9 27.2
2016-May-27 07:07 344 8 gusting 10 27.8
2016-May-27 06:57 339 7 gusting 11 27.2
2016-May-27 06:47 335 4 gusting 7 27.2
2016-May-27 06:37 336 5 gusting 10 26.7
2016-May-27 06:27 321 6 gusting 8 26.7
2016-May-27 06:17 338 6 gusting 9 26.1
2016-May-27 06:07 301 5 gusting 11 26.1
2016-May-27 05:57 307 7 gusting 7 26.7
2016-May-27 05:47 311 4 gusting 11 25.6
2016-May-27 05:37 334 5 gusting 5 25.6
2016-May-27 05:27 351 4 gusting 6 24.4
2016-May-27 05:17 353 6 gusting 7 24.4
2016-May-27 05:07 358 3 gusting 3 23.9
2016-May-27 04:57 23.3
2016-May-27 04:47 007 5 gusting 7 22.8
2016-May-27 04:37 011 4 gusting 7 22.2
2016-May-27 04:27 041 4 gusting 4 22.2
2016-May-27 04:17 017 5 gusting 4 21.7
2016-May-27 04:07 345 2 gusting 4 21.7
2016-May-27 03:57 007 2 gusting 3 21.7
2016-May-27 03:47 353 2 gusting 3 21.7
2016-May-27 03:37 345 3 gusting 6 21.7
2016-May-27 03:27 001 5 gusting 10 21.7
2016-May-27 03:17 013 7 gusting 8 21.7
2016-May-27 03:07 345 6 gusting 7 21.7
2016-May-27 02:57 010 6 gusting 11 21.7
2016-May-27 02:47 010 10 gusting 11 21.7
2016-May-27 02:37 356 7 gusting 10 21.7
2016-May-27 02:27 355 7 gusting 11 21.1
2016-May-27 02:17 019 5 gusting 6 21.7
2016-May-27 02:07 346 8 gusting 7 21.7
2016-May-27 01:57 21.7
2016-May-27 01:47 006 6 gusting 7 21.7
2016-May-27 01:37 007 6 gusting 6 21.7
2016-May-27 01:27 002 3 gusting 6 22.2
2016-May-27 01:17 337 0 gusting 3 22.2
2016-May-27 01:07 013 3 gusting 3 22.2
2016-May-27 00:57 327 22.2
2016-May-27 00:47 347 2 22.2
2016-May-27 00:37 331 4 gusting 6 22.2
2016-May-27 00:27 004 5 gusting 9 22.2
2016-May-27 00:17 357 5 gusting 6 22.2
2016-May-27 00:07 355 5 gusting 5 22.2
2016-May-26 23:57 004 4 gusting 6 22.8
2016-May-26 23:47 001 3 gusting 6 22.8
2016-May-26 23:37 22.8
2016-May-26 23:27 351 6 gusting 8 22.8
2016-May-26 23:17 003 5 gusting 6 22.8
2016-May-26 23:07 001 3 gusting 5 22.8
2016-May-26 22:57 358 3 gusting 5 22.8
2016-May-26 22:47 013 3 gusting 5 22.8
2016-May-26 22:37 019 4 gusting 6 22.8
2016-May-26 22:27 22.8
2016-May-26 22:17 021 22.8
2016-May-26 22:07 006 5 gusting 5 23.3
2016-May-26 21:57 025 6 gusting 5 23.3
2016-May-26 21:47 003 4 gusting 6 23.3
2016-May-26 21:37 23.3
2016-May-26 21:27 356 3 gusting 4 23.3
2016-May-26 21:17 23.3
2016-May-26 21:07 011 4 gusting 5 23.3
2016-May-26 20:57 347 23.3
2016-May-26 20:47 358 4 gusting 5 23.3
2016-May-26 20:37 003 6 gusting 7 23.3
2016-May-26 20:27 006 5 gusting 6 23.3
2016-May-26 20:17 052 3 gusting 7 23.9
2016-May-26 20:07 029 5 gusting 6 23.9
2016-May-26 19:57 062 7 gusting 9 23.9
2016-May-26 19:47 003 6 gusting 7 24.4
2016-May-26 19:37 353 6 gusting 7 24.4
2016-May-26 19:27 329 5 gusting 6 24.4
2016-May-26 19:17 343 6 gusting 5 24.4
2016-May-26 19:07 346 6 gusting 13 25.0
2016-May-26 18:57 324 6 gusting 10 25.0
2016-May-26 18:47 324 5 gusting 10 25.0
2016-May-26 18:37 329 8 gusting 6 25.0
2016-May-26 18:27 334 5 gusting 10 25.0
2016-May-26 18:17 358 6 gusting 8 25.0
2016-May-26 18:07 005 4 gusting 6 25.6
2016-May-26 17:57 345 5 gusting 7 25.6
2016-May-26 17:47 326 4 gusting 6 25.6
2016-May-26 17:37 342 5 gusting 5 25.6
2016-May-26 17:27 347 6 gusting 11 25.6
2016-May-26 17:17 302 8 gusting 11 26.1
2016-May-26 17:07 328 4 gusting 5 26.1
2016-May-26 16:57 013 6 gusting 5 26.1
2016-May-26 16:47 345 8 gusting 12 26.1
2016-May-26 16:37 333 9 gusting 13 26.1
2016-May-26 16:27 355 7 gusting 7 26.1
2016-May-26 16:17 308 7 gusting 11 26.1
2016-May-26 16:07 304 7 gusting 10 26.1
2016-May-26 15:57 338 8 gusting 14 26.1
2016-May-26 15:47 309 8 gusting 9 26.7
2016-May-26 15:37 336 8 gusting 17 26.7
2016-May-26 15:27 331 10 gusting 10 27.2
2016-May-26 15:17 330 12 gusting 13 27.8
2016-May-26 15:07 313 7 gusting 13 27.8
2016-May-26 14:57 302 7 gusting 17 27.8
2016-May-26 14:47 316 8 gusting 13 27.8
2016-May-26 14:37 304 6 gusting 13 27.8
2016-May-26 14:27 27.8
2016-May-26 14:17 326 9 gusting 12 27.2
2016-May-26 14:07 308 6 gusting 10 27.2
2016-May-26 13:57 326 7 gusting 11 27.2
2016-May-26 13:47 302 7 gusting 13 27.2
2016-May-26 13:37 308 8 gusting 11 27.2
2016-May-26 13:27 318 5 gusting 7 27.2
2016-May-26 13:17 293 7 gusting 12 26.7
2016-May-26 13:07 325 12 gusting 16 27.2
2016-May-26 12:57 321 9 gusting 10 27.2
2016-May-26 12:47 318 9 gusting 11 27.8
2016-May-26 12:37 315 5 gusting 11 27.8
2016-May-26 12:27 305 11 gusting 10 27.8
2016-May-26 12:17 326 6 gusting 14 27.8
2016-May-26 12:07 305 6 gusting 15 27.8
2016-May-26 11:57 328 8 gusting 14 27.8
2016-May-26 11:47 313 6 gusting 11 27.2
2016-May-26 11:37 358 3 gusting 13 27.2
2016-May-26 11:27 308 7 gusting 13 27.2
2016-May-26 11:17 322 5 gusting 12 27.2
2016-May-26 11:07 323 7 gusting 12 27.2
2016-May-26 10:57 302 6 gusting 7 27.2
2016-May-26 10:47 321 6 gusting 6 27.2
2016-May-26 10:37 300 6 gusting 11 26.7
2016-May-26 10:27 290 6 gusting 5 26.7
2016-May-26 10:17 319 7 gusting 12 26.7
2016-May-26 10:07 310 7 gusting 8 26.7
2016-May-26 09:57 337 5 gusting 6 26.7
2016-May-26 09:47 320 7 gusting 8 26.7
2016-May-26 09:37 335 6 gusting 7 26.7
2016-May-26 09:27 287 6 gusting 11 26.1
2016-May-26 09:17 305 6 gusting 13 26.1
2016-May-26 09:07 342 7 gusting 7 26.7
2016-May-26 08:57 315 6 gusting 12 26.7
2016-May-26 08:47 297 8 gusting 12 26.7
2016-May-26 08:37 318 10 gusting 12 26.7
2016-May-26 08:27 324 7 gusting 8 26.7
2016-May-26 08:17 319 9 gusting 17 26.7
2016-May-26 08:07 303 9 gusting 13 26.7
2016-May-26 07:57 304 4 gusting 6 26.1
2016-May-26 07:47 300 9 gusting 13 26.1
2016-May-26 07:37 347 10 gusting 15 26.1
2016-May-26 07:27 311 10 gusting 12 26.1
2016-May-26 07:17 332 9 gusting 13 25.6
2016-May-26 07:07 315 6 gusting 13 25.6
2016-May-26 06:57 356 11 gusting 10 25.6
2016-May-26 06:47 317 13 gusting 12 25.0
2016-May-26 06:37 007 10 gusting 13 25.0
2016-May-26 06:27 278 9 gusting 14 25.0
2016-May-26 06:17 306 10 gusting 13 24.4
2016-May-26 06:07 012 5 gusting 9 24.4
2016-May-26 05:57 346 8 gusting 10 23.9
2016-May-26 05:47 320 7 gusting 9 23.9
2016-May-26 05:37 307 8 gusting 13 23.3
2016-May-26 05:27 342 7 gusting 13 22.8
2016-May-26 05:17 003 8 gusting 12 22.8
2016-May-26 05:07 011 12 gusting 9 22.2
2016-May-26 04:57 347 7 gusting 10 22.2
2016-May-26 04:47 347 7 gusting 10 21.7
2016-May-26 04:37 336 7 gusting 8 21.1
2016-May-26 04:27 011 7 gusting 7 20.6
2016-May-26 04:17 351 7 gusting 6 20.6
2016-May-26 04:07 356 8 gusting 7 20.6
2016-May-26 03:57 20.6
2016-May-26 03:47 351 9 gusting 15 20.6
2016-May-26 03:37 335 10 gusting 11 20.6
2016-May-26 03:27 341 7 gusting 6 20.6
2016-May-26 03:17 322 6 gusting 13 20.6
2016-May-26 03:07 355 8 gusting 9 20.6
2016-May-26 02:57 358 6 gusting 13 20.6
2016-May-26 02:47 329 8 gusting 11 20.6
2016-May-26 02:37 341 9 gusting 17 20.6
2016-May-26 02:27 20.6
2016-May-26 02:17 325 8 gusting 14 20.6
2016-May-26 02:07 342 9 gusting 10 20.6
2016-May-26 01:57 321 8 gusting 10 20.6
2016-May-26 01:47 313 7 gusting 11 20.6
2016-May-26 01:37 339 6 gusting 8 20.6
2016-May-26 01:27 342 8 gusting 11 20.6
2016-May-26 01:17 359 6 gusting 7 20.6
2016-May-26 01:07 357 7 gusting 8 21.1
2016-May-26 00:57 357 6 gusting 11 21.1
2016-May-26 00:47 333 5 gusting 11 21.1
2016-May-26 00:37 002 6 gusting 6 21.1
2016-May-26 00:27 348 7 gusting 7 21.1
2016-May-26 00:17 334 6 gusting 6 21.1
2016-May-26 00:07 005 7 gusting 7 21.1
2016-May-25 23:57 357 8 gusting 9 21.1
2016-May-25 23:47 327 7 gusting 11 21.7
2016-May-25 23:37 318 7 gusting 13 21.7
2016-May-25 23:27 333 7 gusting 12 21.7
2016-May-25 23:17 348 9 gusting 7 21.7
2016-May-25 23:07 343 8 gusting 13 21.7
2016-May-25 22:57 305 7 gusting 13 21.7
2016-May-25 22:47 354 6 gusting 10 21.7
2016-May-25 22:37 327 5 gusting 13 21.7
2016-May-25 22:27 318 6 gusting 8 22.2
2016-May-25 22:17 335 9 gusting 8 22.2
2016-May-25 22:07 014 8 gusting 12 22.2
2016-May-25 21:57 001 6 gusting 12 22.8
2016-May-25 21:47 003 6 gusting 9 22.8
2016-May-25 21:37 356 4 gusting 7 22.8
2016-May-25 21:27 008 6 gusting 6 22.8
2016-May-25 21:17 011 6 gusting 10 23.3
2016-May-25 21:07 003 7 gusting 7 23.3
2016-May-25 20:57 005 6 gusting 9 23.9
2016-May-25 20:47 299 2 gusting 6 23.9
2016-May-25 20:37 323 2 gusting 3 23.9
2016-May-25 20:27 303 3 gusting 4 23.9
2016-May-25 20:17 328 3 gusting 3 23.9
2016-May-25 20:07 328 3 gusting 3 23.9
2016-May-25 19:57 350 3 gusting 4 23.9
2016-May-25 19:47 005 5 gusting 11 23.9
2016-May-25 19:37 018 6 gusting 7 23.9
2016-May-25 19:27 012 6 gusting 6 23.9
2016-May-25 19:17 033 4 gusting 5 23.9
2016-May-25 19:07 032 4 gusting 7 24.4
2016-May-25 18:57 24.4
2016-May-25 18:47 005 5 gusting 6 23.9
2016-May-25 18:37 339 5 gusting 6 23.9
2016-May-25 18:27 002 4 gusting 5 24.4
2016-May-25 18:17 026 0 gusting 4 24.4
2016-May-25 18:07 357 5 gusting 8 24.4
2016-May-25 17:57 004 5 gusting 10 24.4
2016-May-25 17:47 338 5 gusting 11 25.0
2016-May-25 17:37 331 6 gusting 7 25.0
2016-May-25 17:27 334 4 gusting 6 25.0
2016-May-25 17:17 311 5 gusting 6 25.0
2016-May-25 17:07 323 7 gusting 8 25.0
2016-May-25 16:57 316 5 gusting 9 25.6
2016-May-25 16:47 321 5 gusting 5 25.6
2016-May-25 16:37 338 6 gusting 12 25.6
2016-May-25 16:27 348 6 gusting 10 25.6
2016-May-25 16:17 313 4 gusting 7 25.6
2016-May-25 16:07 313 7 gusting 11 26.1
2016-May-25 15:57 319 6 gusting 10 26.1
2016-May-25 15:47 323 6 gusting 7 26.1
2016-May-25 15:37 264 8 gusting 6 26.1
2016-May-25 15:27 314 4 gusting 6 26.1
2016-May-25 15:17 304 6 gusting 7 26.1
2016-May-25 15:07 287 6 gusting 7 26.1
2016-May-25 14:57 358 4 gusting 7 26.1
2016-May-25 14:47 280 6 gusting 6 26.1
2016-May-25 14:37 316 10 gusting 12 26.1
2016-May-25 14:27 327 6 gusting 7 26.1
2016-May-25 14:17 325 6 gusting 14 26.1
2016-May-25 14:07 324 11 gusting 11 26.1
2016-May-25 13:57 313 4 gusting 9 26.1
2016-May-25 13:47 294 7 gusting 8 25.6
2016-May-25 13:37 336 6 gusting 12 26.1
2016-May-25 13:27 011 9 gusting 13 26.1
2016-May-25 13:17 021 5 gusting 6 26.1
2016-May-25 13:07 303 7 gusting 9 25.6
2016-May-25 12:57 353 6 gusting 11 25.6
2016-May-25 12:47 302 6 gusting 12 26.1
2016-May-25 12:37 297 3 gusting 5 25.6
2016-May-25 12:27 298 4 gusting 6 25.6
2016-May-25 12:17 346 7 gusting 7 25.6
2016-May-25 12:07 311 3 gusting 8 25.0